Santa Monica, CA

6:16 PM PDT on April 19, 2018 (GMT -0700)
Santa Monica Municipal

Weather History for KSMO - January, 2018

Change the Weather History Date:

Sunday, January 14, 2018

  Actual Average Record
Temperature  
Mean Temperature 68 °F -  
Max Temperature 82 °F 68 °F 86 °F (1961)
Min Temperature 55 °F 48 °F 34 °F (2007)
Cooling Degree Days 4    
Growing Degree Days 18 (Base 50)    
Moisture  
Dew Point 36 °F    
Average Humidity 36    
Maximum Humidity 57    
Minimum Humidity 13    
Precipitation  
Precipitation 0.00 in - - ()
Sea Level Pressure  
Sea Level Pressure 30.11 in    
Wind  
Wind Speed 5 mph (NNE)    
Max Wind Speed 8 mph    
Max Gust Speed -    
Visibility 10 miles    
Events      
Averages and records for this station are not official NWS values.
T = Trace of Precipitation, MM = Missing Value Source: NWS Daily Summary

Daily Weather History Graph

Daily Weather History Graph

Search for Another Location

Airport or City:

Astronomy

Jan. 14, 2018 Rise Set
Actual Time 6:59 AM PST 5:06 PM PST
Civil Twilight 6:32 AM PST 5:34 PM PST
Nautical Twilight 6:01 AM PST 6:04 PM PST
Astronomical Twilight 5:31 AM PST 6:34 PM PST
Moon 4:59 AM PST (1/14) 3:27 PM PST (1/14)
Length of Visible Light 11h 02m
Length of Day
10h 07m
Waning Crescent, 5% of the Moon is Illuminated
Jan 14
Waning Crescent
Jan 16
New
Jan 24
First Quarter
Jan 31
Full
Feb 7
Last Quarter

Hourly Weather History & Observations

Time (PST) Temp. Dew Point Humidity Pressure Visibility Wind Dir Wind Speed Gust Speed Precip Events Conditions
12:51 AM 62.1 °F 37.0 °F 39% 30.10 in 10.0 mi ENE 4.6 mph - N/A   Clear
1:51 AM 60.1 °F 37.0 °F 42% 30.11 in 10.0 mi NE 4.6 mph - N/A   Clear
2:51 AM 55.9 °F 39.9 °F 55% 30.11 in 10.0 mi NNE 4.6 mph - N/A   Clear
3:51 AM 60.1 °F 32.0 °F 35% 30.10 in 10.0 mi North 4.6 mph - N/A   Clear
4:51 AM 61.0 °F 32.0 °F 34% 30.09 in 10.0 mi NNE 5.8 mph - N/A   Clear
5:51 AM 64.0 °F 30.0 °F 28% 30.10 in 10.0 mi Variable 3.5 mph - N/A   Clear
6:51 AM 59.0 °F 36.0 °F 42% 30.11 in 10.0 mi ENE 5.8 mph - N/A   Clear
7:51 AM 59.0 °F 36.0 °F 42% 30.13 in 10.0 mi NE 3.5 mph - N/A   Clear
8:51 AM 66.9 °F 36.0 °F 32% 30.14 in 10.0 mi NNE 6.9 mph - N/A   Clear
9:51 AM 73.0 °F 30.9 °F 21% 30.16 in 10.0 mi NNE 4.6 mph - N/A   Clear
10:51 AM 77.0 °F 30.0 °F 18% 30.15 in 10.0 mi North 5.8 mph - N/A   Clear
11:51 AM 81.0 °F 25.0 °F 13% 30.13 in 10.0 mi Variable 3.5 mph - N/A   Clear
12:51 PM 81.0 °F 26.1 °F 13% 30.10 in 10.0 mi Variable 6.9 mph - N/A   Clear
1:51 PM 82.0 °F 26.1 °F 13% 30.07 in 10.0 mi ESE 5.8 mph - N/A   Clear
2:51 PM 77.0 °F 39.9 °F 26% 30.07 in 10.0 mi SSW 8.1 mph - N/A   Clear
3:51 PM 75.0 °F 39.0 °F 27% 30.08 in 10.0 mi WSW 4.6 mph - N/A   Clear
4:51 PM 71.1 °F 43.0 °F 36% 30.09 in 10.0 mi WSW 4.6 mph - N/A   Clear
5:51 PM 68.0 °F 42.1 °F 39% 30.08 in 10.0 mi Calm Calm - N/A   Clear
6:51 PM 64.0 °F 44.1 °F 48% 30.07 in 10.0 mi WNW 3.5 mph - N/A   Clear
7:51 PM 62.1 °F 41.0 °F 46% 30.09 in 10.0 mi Calm Calm - N/A   Clear
8:51 PM 60.1 °F 45.0 °F 57% 30.11 in 10.0 mi North 3.5 mph - N/A   Clear
9:51 PM 59.0 °F 43.0 °F 55% 30.12 in 10.0 mi Calm Calm - N/A   Clear
10:51 PM 59.0 °F 41.0 °F 51% 30.12 in 10.0 mi ENE 5.8 mph - N/A   Clear
11:51 PM 59.0 °F 41.0 °F 51% 30.10 in 10.0 mi NE 4.6 mph - N/A   Clear